Custer, SD

3:38 PM MDT on June 27, 2017 (GMT -0600)
Custer County

Weather History for KCUT - September, 2012

Change the Weather History Date:

Sunday, September 23, 2012

  Actual Average Record
Temperature  
Mean Temperature 52 °F 51 °F  
Max Temperature 67 °F 64 °F 85 °F (1958)
Min Temperature 36 °F 38 °F 19 °F (1956)
Degree Days  
Heating Degree Days 13 14  
Month to date heating degree days 151 221  
Since 1 July heating degree days 220 375  
Cooling Degree Days 0 0  
Month to date cooling degree days 23 11  
Year to date cooling degree days 390 177  
Growing Degree Days 2 (Base 50)    
Moisture  
Dew Point 28 °F    
Average Humidity 44    
Maximum Humidity 64    
Minimum Humidity 24    
Precipitation  
Precipitation 0.00 in 0.05 in 1.10 in (1977)
Month to date precipitation 0.11 1.31  
Year to date precipitation 10.25 16.23  
Sea Level Pressure  
Sea Level Pressure 30.12 in    
Wind  
Wind Speed 6 mph (NE)    
Max Wind Speed 15 mph    
Max Gust Speed 21 mph    
Visibility 10 miles    
Events      
T = Trace of Precipitation, MM = Missing Value Source: NWS Daily Summary

Daily Weather History Graph

Daily Weather History Graph

Search for Another Location

Airport or City:

Trip Planner

Search our weather history database for the weather conditions in past years. The results will help you decide how hot, cold, wet, or windy it might be!

Date:

Astronomy

Sep. 23, 2012 Rise Set
Actual Time 6:43 AM MDT 6:49 PM MDT
Civil Twilight 6:14 AM MDT 7:17 PM MDT
Nautical Twilight 5:41 AM MDT 7:51 PM MDT
Astronomical Twilight 5:06 AM MDT 8:25 PM MDT
Moon 3:02 PM MDT (9/23) No Moon Set
Length of Visible Light 13h 02m
Length of Day
12h 05m
First Quarter, 60% of the Moon is Illuminated
Sep 23
First Quarter
Sep 29
Full
Oct 8
Last Quarter
Oct 15
New
Oct 21
First Quarter

Hourly Weather History & Observations

Time (MDT) Temp. Windchill Dew Point Humidity Pressure Visibility Wind Dir Wind Speed Gust Speed Precip Events Conditions
12:53 AM 37.0 °F 33.3 °F 25.0 °F 62% 30.16 in 10.0 mi North 4.6 mph - N/A   Clear
1:53 AM 37.0 °F 34.5 °F 25.0 °F 62% 30.14 in 10.0 mi NNW 3.5 mph - N/A   Clear
2:53 AM 37.9 °F 35.5 °F 26.1 °F 62% 30.13 in 10.0 mi NW 3.5 mph - N/A   Clear
3:53 AM 37.0 °F 34.5 °F 26.1 °F 65% 30.13 in 10.0 mi NNW 3.5 mph - N/A   Clear
4:53 AM 37.0 °F 34.5 °F 26.1 °F 65% 30.12 in 10.0 mi NW 3.5 mph - N/A   Clear
5:53 AM 39.0 °F 35.7 °F 28.0 °F 65% 30.13 in 10.0 mi NNW 4.6 mph - N/A   Clear
6:53 AM 39.9 °F 35.1 °F 28.0 °F 63% 30.15 in 10.0 mi NNE 6.9 mph - N/A   Clear
7:53 AM 46.0 °F 42.5 °F 28.9 °F 51% 30.15 in 10.0 mi NE 6.9 mph - N/A   Clear
8:53 AM 55.9 °F - 30.0 °F 37% 30.13 in 10.0 mi NE 6.9 mph - N/A   Clear
10:53 AM 64.0 °F - 30.0 °F 28% 30.12 in 10.0 mi East 9.2 mph - N/A   Clear
11:53 AM 64.9 °F - 28.9 °F 26% 30.13 in 10.0 mi East 10.4 mph - N/A   Clear
12:53 PM 64.0 °F - 28.9 °F 27% 30.14 in 10.0 mi East 11.5 mph 19.6 mph N/A   Clear
1:53 PM 66.0 °F - 28.0 °F 24% 30.12 in 10.0 mi East 11.5 mph - N/A   Clear
2:53 PM 64.9 °F - 28.0 °F 25% 30.11 in 10.0 mi East 10.4 mph - N/A   Clear
3:53 PM 64.9 °F - 28.0 °F 25% 30.11 in 10.0 mi East 10.4 mph - N/A   Clear
4:53 PM 62.1 °F - 28.0 °F 28% 30.11 in 10.0 mi ENE 8.1 mph - N/A   Clear
5:53 PM 57.9 °F - 28.9 °F 33% 30.12 in 10.0 mi East 6.9 mph - N/A   Clear
6:53 PM 54.0 °F - 28.9 °F 38% 30.14 in 10.0 mi NE 4.6 mph - N/A   Clear
7:53 PM 53.1 °F - 28.9 °F 40% 30.11 in 10.0 mi NE 3.5 mph - N/A   Clear
8:53 PM 50.0 °F - 28.0 °F 43% 30.09 in 10.0 mi Calm Calm - N/A   Clear
9:53 PM 46.0 °F - 28.0 °F 50% 30.09 in 10.0 mi Calm Calm - N/A   Clear
10:53 PM 45.0 °F 43.5 °F 28.0 °F 52% 30.06 in 10.0 mi NNW 3.5 mph - N/A   Clear
11:53 PM 45.0 °F 43.5 °F 28.9 °F 53% 30.05 in 10.0 mi North 3.5 mph - N/A   Clear